Location: *
(45.9500°N, 9.0833°E)
Time: 21:11:27
(UTC+00:00)

Tiros 1 - Pass Details

Date: 20 June 2021
Orbit: 630 x 664 km, 48.4° (Epoch: 05 August)

Event Time Altitude Azimuth Distance (km) Brightness Sun altitude
Rises 14:37:17 0° 289° (WNW) 2,952 11.1 45.5°
Reaches altitude 10° 14:39:39 10° 285° (WNW) 2,046 10.6 45.1°
Maximum altitude 14:44:15 54° 209° (SSW) 789 8.8 44.3°
Drops below altitude 10° 14:48:53 10° 132° (SE) 2,059 9.6 43.5°
Sets 14:51:15 0° 128° (SE) 2,973 10.3 43.1°
